Weather in Kobyzhcha

Ukraine / Chernihiv Region     50°49′36″N   31°30′19″E
temp.,
°C
wind,
m/s
gust,
m/s
humid.,
%
clouds,
%
prec.,
mm/h
press.,
hPa
HPBL,
m
15 april, thu
thu1500:00+10ssw2273100 0.1 101416
03:00+10e2278100 0.1 101327
06:00+9ne1192100 1.8 101229
09:00+9wnw1192100 3.2 101249
12:00+9s3495100 3.3 1012233
15:00+8ssw3593100 9.3 1012242
18:00+9ssw248394 0.3 1011329
21:00+8sse239324 0.3 101170
16 april, fri
fri1600:00+7sse229198 0.0 101018
03:00+7sse2290100 0.0 101057
06:00+7se3594100 0.0 1010159
09:00+8se4591100 0.1 1011490
12:00+9se4683100 0.3 1012722
15:00+7sse4790100 0.8 1013482
18:00+7sse4687100 0.1 1014782
21:00+6sse3591100 0.1 1015539
17 april, sat
sat1700:00+6s359389 0.0 1016277
03:00+5se229649 0.0 101766
06:00+5se239592 0.0 1018159
09:00+7sse2290100 0.0 1019387
12:00+8ssw338392 0.1 1021677
15:00+9sw437499 0.1 1021921
18:00+9sw337640 0.0 1021495
21:00+6wsw238753 0.0 102289
18 april, sun
sun1800:00+5w33885 0.0 102257
03:00+5nnw22905 0.0 102317
06:00+4n118934 0.0 102310
09:00+8ene127585 0.0 1023273
12:00+12e345832 0.0 10231159
15:00+15e344820 0.0 10221736
18:00+14ese355267 0.0 10211642
21:00+11e356995 0.0 102294
19 april, mon
mon1900:00+9e377861 0.0 1022119
03:00+10e4883100 0.0 1021204
06:00+9e61183100 0.1 1020354
09:00+10e71176100 0.1 1020542
12:00+13ese71068100 0.0 10191141
15:00+11ese71281100 1.7 10161349
18:00+10e71591100 6.1 1015909
21:00+10e91791100 8.5 1012873